Flag for Canada Weather past 2 weeks in Red Deer, Alberta, Canada

59 °F

Passing clouds.

Feels Like: 57 °F
Forecast: 53 / 71 °F
Wind: 9 mph from Southwest

Location: Red Deer

Current Time: Oct 10, 2015 at 3:27:20 AM

Latest Report: Oct 10, 2015 at 3:00 AM

Visibility: 15 mi

Pressure: 29.60 "Hg (26.74 "Hg at 857m altitude)

Humidity: 51%

Dew point: 41 °F

Location of Red DeerLocation

Historic Weather in Red Deer — Graph


Red Deer temperature yesterday

Maximum temperature yesterday: 73 °F (at 2:00 PM)
Minimum temperature yesterday: 39 °F (at 8:00 AM)
Average temperature yesterday: 58 °F

Past Weeks' High & Low Weather Summary

High73 °F (Oct 9, 2:00 PM)100% (Sep 26, 7:45 AM)30.48 "Hg (Sep 26, 7:45 AM)
Low23 °F (Oct 5, 6:00 AM)29% (Oct 9, 2:00 PM)29.57 "Hg (Oct 10, 1:00 AM)
Average46 °F71%30.08 "Hg
* Reported Sep 25 2:00 AM — Oct 10 2:00 AM, Red Deer, Weather by CustomWeather, © 2015

Note: Actual official high and low records may vary slightly from our data, if they occured in-between our weather recording intervals... More about our weather records


Red Deer weather history for previous 24 hours

Time TempWeatherWind HumidityBarometerVisibility
2:00 AM
Sat, Oct 10
63 °FPassing clouds.17 mph45%29.59 "Hg15 mi
1:00 AM66 °FHigh level clouds.23 mph37%29.57 "Hg15 mi
12:00 AM66 °FOvercast.17 mph37%29.59 "Hg15 mi
11:00 PM
Fri, Oct 9
66 °FOvercast.14 mph40%29.60 "Hg15 mi
10:00 PM66 °FMostly cloudy.10 mph40%29.61 "Hg15 mi
9:00 PM68 °FMostly cloudy.15 mph35%29.63 "Hg15 mi
8:00 PM66 °FMostly cloudy.14 mph37%29.64 "Hg15 mi
7:00 PM66 °FMostly cloudy.10 mph35%29.64 "Hg15 mi
6:00 PM66 °FOvercast.12 mph35%29.64 "Hg15 mi
5:00 PM68 °FOvercast.14 mph30%29.65 "Hg15 mi
4:00 PM68 °FMostly cloudy.14 mph30%29.67 "Hg15 mi
3:00 PM66 °FScattered showers. Mostly cloudy.9 mph40%29.69 "Hg15 mi
2:00 PM73 °FMostly cloudy.18 mph29%29.70 "Hg15 mi
1:00 PM72 °FOvercast.8 mph36%29.72 "Hg15 mi
12:00 PM68 °FPartly sunny.9 mph38%29.77 "Hg15 mi
11:00 AM63 °FPartly sunny.6 mph52%29.79 "Hg15 mi
10:00 AM55 °FBroken clouds.5 mph63%29.83 "Hg15 mi
9:00 AM48 °FScattered clouds.6 mph76%29.85 "Hg15 mi
8:00 AM39 °FPassing clouds.5 mph87%29.87 "Hg15 mi
7:00 AM43 °FPassing clouds.6 mph87%29.89 "Hg15 mi
6:00 AM41 °FClear.6 mph87%29.90 "Hg15 mi
5:00 AM45 °FPassing clouds.2 mph81%29.91 "Hg15 mi
4:00 AM43 °FPassing clouds.7 mph87%29.93 "Hg15 mi
3:00 AM48 °FPassing clouds.5 mph82%29.94 "Hg15 mi
Weather by CustomWeather, © 2015

See weather overviewHow to use our weather pages